Tracking 19817 objects as of 17-Aug-2019
HD Live streaming from Space Station
objects crossing your sky now

COSMOS 2251 DEB

Track COSMOS 2251 DEB now!
10-day predictions


NORAD ID: 34966
Int'l Code: 1993-036AEV
Perigee: 557.0 km
Apogee: 597.1 km
Inclination: 74.0 °
Period: 96.1 minutes
Semi major axis: 6948 km
RCS: 0.0105 m2 (small)
Launch date: June 16, 1993
Source: Commonwealth of Independent States (former USSR) (CIS)
Launch site: PLESETSK MISSILE AND SPACE COMPLEX (PKMTR)

Note: This is SATELLITE DEBRIS
aabbcc
Your satellite tracking list
Your tracking list is empty




NASA's NSSDC Master Catalog

Two Line Element Set (TLE):
1 34966U 93036AEV 19228.95776087 +.00002103 +00000-0 +17548-3 0  9994
2 34966 073.9665 093.7592 0028882 192.1235 167.9260 14.99018106552284
Source of the keplerian elements: AFSPC